Simultaneous Nadir Overpasses (SNOs) Predictions

Prediction of SNOs between GOES-17 and LANDSAT-8 Satellite Orbit:

Table of predicted SNOs for the next 14.0 days since TLE Epoch: 3/9/2024
Index Date Time (GOES-17) GOES-17 Lat,Lon LANDSAT-8 Lat,Lon Distance(km) Time Diff (sec)
1 03/09/2024 05:21:46 0.00,-104.69 -0.49,-107.00 263.03 80
2 03/11/2024 05:06:54 0.00,-104.70 0.12,-104.05 73.52 80
3 03/13/2024 04:54:42 0.00,-104.70 0.75,-101.09 410.27 80
4 03/13/2024 17:15:58 -0.00,-104.71 0.30,-106.26 175.91 80
5 03/15/2024 17:06:25 -0.00,-104.71 -0.29,-103.29 160.91 80
6 03/16/2024 05:27:48 0.00,-104.71 -0.81,-108.48 429.08 80
7 03/17/2024 16:54:13 -0.00,-104.71 -0.96,-100.34 497.72 80
8 03/18/2024 05:15:36 0.00,-104.72 -0.20,-105.52 92.31 80
9 03/20/2024 05:00:43 0.00,-104.72 0.43,-102.56 244.95 80
10 03/20/2024 17:21:57 -0.00,-104.72 0.66,-107.72 341.47 80
11 03/22/2024 17:09:44 -0.00,-104.73 0.01,-104.76 3.66 80
